Time,TemperatureF,DewpointF,PressureIn,WindDirection,WindDirectionDegrees,WindSpeedMPH,WindSpeedGustMPH,Humidity,HourlyPrecipIn,Conditions,Clouds,dailyrainin,SoftwareType,DateUTC
2013-12-07 00:21:00,15.0,11.0,30.23,NW,321,0.0,1.0,84,0.00,,,0.00,,2013-12-07 08:21:00,
2013-12-07 00:52:00,14.0,10.0,30.23,NW,321,0.0,1.0,84,0.00,,,0.00,,2013-12-07 08:52:00,
2013-12-07 01:12:00,13.0,10.0,30.23,NW,321,0.0,1.0,87,0.00,,,0.00,,2013-12-07 09:12:00,
2013-12-07 01:21:00,14.0,11.0,30.23,NW,321,0.0,2.0,87,0.00,,,0.00,,2013-12-07 09:21:00,
2013-12-07 01:43:00,13.0,10.0,30.23,NW,321,0.0,1.0,87,0.00,,,0.00,,2013-12-07 09:43:00,
2013-12-07 01:53:00,13.0,10.0,30.23,NW,321,0.0,0.0,87,0.00,,,0.00,,2013-12-07 09:53:00,
2013-12-07 02:23:00,12.0,9.0,30.24,NW,321,0.0,0.0,86,0.00,,,0.00,,2013-12-07 10:23:00,
2013-12-07 02:53:00,11.0,8.0,30.24,NW,321,0.0,1.0,89,0.00,,,0.00,,2013-12-07 10:53:00,
2013-12-07 03:22:00,12.0,10.0,30.24,NW,321,0.0,1.0,90,0.00,,,0.00,,2013-12-07 11:22:00,
2013-12-07 03:42:00,13.0,10.0,30.25,NW,321,0.0,1.0,89,0.00,,,0.00,,2013-12-07 11:42:00,
2013-12-07 03:52:00,13.0,10.0,30.25,NW,321,0.0,2.0,88,0.00,,,0.00,,2013-12-07 11:52:00,
2013-12-07 04:22:00,13.0,10.0,30.25,NW,321,0.0,3.0,87,0.00,,,0.00,,2013-12-07 12:22:00,
2013-12-07 04:52:00,11.0,8.0,30.26,NW,321,0.0,1.0,86,0.00,,,0.00,,2013-12-07 12:52:00,
2013-12-07 05:11:00,11.0,8.0,30.26,NW,321,0.0,1.0,86,0.00,,,0.00,,2013-12-07 13:11:00,
2013-12-07 05:52:00,11.0,8.0,30.27,NW,321,0.0,1.0,89,0.00,,,0.00,,2013-12-07 13:52:00,
2013-12-07 06:21:00,11.0,8.0,30.28,NW,321,0.0,1.0,88,0.00,,,0.00,,2013-12-07 14:21:00,
2013-12-07 06:42:00,11.0,8.0,30.28,NW,321,0.0,2.0,87,0.00,,,0.00,,2013-12-07 14:42:00,
2013-12-07 06:52:00,10.0,7.0,30.29,NW,321,0.0,1.0,86,0.00,,,0.00,,2013-12-07 14:52:00,
2013-12-07 07:53:00,9.0,6.0,30.30,NW,321,0.0,1.0,89,0.00,,,0.00,,2013-12-07 15:53:00,
2013-12-07 08:13:00,9.0,6.0,30.30,NW,321,0.0,1.0,89,0.00,,,0.00,,2013-12-07 16:13:00,
2013-12-07 08:23:00,9.0,6.0,30.31,NW,321,0.0,1.0,89,0.00,,,0.00,,2013-12-07 16:23:00,
2013-12-07 08:33:00,9.0,6.0,30.31,NW,321,0.0,1.0,89,0.00,,,0.00,,2013-12-07 16:33:00,
2013-12-07 08:42:00,9.0,6.0,30.31,NW,321,0.0,1.0,89,0.00,,,0.00,,2013-12-07 16:42:00,
2013-12-07 08:52:00,9.0,6.0,30.32,NW,321,0.0,1.0,89,0.00,,,0.00,,2013-12-07 16:52:00,
2013-12-07 09:02:00,9.0,6.0,30.32,NW,321,0.0,1.0,89,0.00,,,0.00,,2013-12-07 17:02:00,
2013-12-07 09:22:00,10.0,8.0,30.32,NW,321,0.0,1.0,91,0.00,,,0.00,,2013-12-07 17:22:00,
2013-12-07 09:43:00,11.0,9.0,30.33,NW,321,0.0,1.0,91,0.00,,,0.00,,2013-12-07 17:43:00,
2013-12-07 09:52:00,14.0,12.0,30.34,NW,321,0.0,1.0,92,0.00,,,0.00,,2013-12-07 17:52:00,
2013-12-07 10:12:00,16.0,13.0,30.34,NW,321,0.0,1.0,87,0.00,,,0.00,,2013-12-07 18:12:00,
2013-12-07 10:22:00,19.0,15.0,30.35,NW,321,0.0,1.0,85,0.00,,,0.00,,2013-12-07 18:22:00,
2013-12-07 10:43:00,24.0,18.0,30.35,South,177,0.0,3.0,76,0.00,,,0.00,,2013-12-07 18:43:00,
2013-12-07 12:52:00,31.0,13.0,30.34,SE,134,1.0,4.0,46,0.00,,,0.00,,2013-12-07 20:52:00,
2013-12-07 13:53:00,33.0,12.0,30.33,WNW,294,3.0,5.0,41,0.00,,,0.00,,2013-12-07 21:53:00,
2013-12-07 14:23:00,32.0,12.0,30.34,NW,316,2.0,7.0,42,0.00,,,0.00,,2013-12-07 22:23:00,
2013-12-07 14:42:00,31.0,11.0,30.34,SW,234,1.0,5.0,43,0.00,,,0.00,,2013-12-07 22:42:00,
2013-12-07 14:53:00,30.0,9.0,30.34,NW,313,1.0,5.0,41,0.00,,,0.00,,2013-12-07 22:53:00,
2013-12-07 15:21:00,29.0,9.0,30.35,NW,305,0.0,4.0,43,0.00,,,0.00,,2013-12-07 23:21:00,
2013-12-07 15:42:00,28.0,9.0,30.35,NW,304,3.0,6.0,44,0.00,,,0.00,,2013-12-07 23:42:00,
2013-12-07 15:52:00,28.0,9.0,30.36,NW,304,1.0,3.0,44,0.00,,,0.00,,2013-12-07 23:52:00,
2013-12-07 16:11:00,27.0,9.0,30.36,NW,304,0.0,4.0,46,0.00,,,0.00,,2013-12-08 00:11:00,
2013-12-07 16:22:00,26.0,7.0,30.37,NW,304,1.0,4.0,43,0.00,,,0.00,,2013-12-08 00:22:00,
2013-12-07 16:52:00,24.0,11.0,30.36,NW,304,0.0,1.0,58,0.00,,,0.00,,2013-12-08 00:52:00,
2013-12-07 17:12:00,22.0,11.0,30.36,NW,304,0.0,1.0,63,0.00,,,0.00,,2013-12-08 01:12:00,
2013-12-07 17:22:00,20.0,11.0,30.36,NW,304,0.0,0.0,66,0.00,,,0.00,,2013-12-08 01:22:00,
2013-12-07 17:42:00,19.0,10.0,30.37,NW,304,0.0,0.0,68,0.00,,,0.00,,2013-12-08 01:42:00,
2013-12-07 17:52:00,17.0,9.0,30.37,NW,304,0.0,1.0,71,0.00,,,0.00,,2013-12-08 01:52:00,
2013-12-07 18:21:00,16.0,9.0,30.37,NW,304,0.0,2.0,75,0.00,,,0.00,,2013-12-08 02:21:00,
2013-12-07 18:43:00,16.0,9.0,30.37,NW,304,0.0,0.0,75,0.00,,,0.00,,2013-12-08 02:43:00,
2013-12-07 18:52:00,15.0,9.0,30.37,NW,304,0.0,1.0,77,0.00,,,0.00,,2013-12-08 02:52:00,
2013-12-07 19:22:00,15.0,9.0,30.37,NW,304,0.0,0.0,78,0.00,,,0.00,,2013-12-08 03:22:00,
2013-12-07 19:54:00,13.0,8.0,30.37,NW,304,0.0,0.0,81,0.00,,,0.00,,2013-12-08 03:54:00,
2013-12-07 20:02:00,-999.0,-99.9,30.38,NW,304,0.0,0.0,-999,0.00,,,0.00,,2013-12-08 04:02:00,
2013-12-07 20:22:00,12.0,8.0,30.38,NW,304,0.0,2.0,85,0.00,,,0.00,,2013-12-08 04:22:00,
2013-12-07 20:53:00,11.0,7.0,30.37,NW,304,0.0,0.0,85,0.00,,,0.00,,2013-12-08 04:53:00,
2013-12-07 21:22:00,11.0,8.0,30.38,NW,304,0.0,0.0,87,0.00,,,0.00,,2013-12-08 05:22:00,
2013-12-07 21:43:00,10.0,7.0,30.39,NW,304,0.0,0.0,86,0.00,,,0.00,,2013-12-08 05:43:00,
2013-12-07 21:53:00,10.0,7.0,30.39,NW,304,0.0,0.0,86,0.00,,,0.00,,2013-12-08 05:53:00,
2013-12-07 22:22:00,11.0,9.0,30.39,NW,304,0.0,1.0,91,0.00,,,0.00,,2013-12-08 06:22:00,
2013-12-07 22:42:00,11.0,8.0,30.39,NW,304,0.0,2.0,88,0.00,,,0.00,,2013-12-08 06:42:00,
2013-12-07 22:52:00,11.0,8.0,30.39,NW,304,0.0,0.0,88,0.00,,,0.00,,2013-12-08 06:52:00,
2013-12-07 23:21:00,10.0,7.0,30.40,NW,304,0.0,0.0,86,0.00,,,0.00,,2013-12-08 07:21:00,
2013-12-07 23:42:00,10.0,8.0,30.40,NW,304,0.0,1.0,90,0.00,,,0.00,,2013-12-08 07:42:00,
2013-12-07 23:53:00,10.0,7.0,30.41,NW,304,0.0,1.0,89,0.00,,,0.00,,2013-12-08 07:53:00,